Lancaster, SC

12:34 AM EDT on May 27, 2017 (GMT -0400)
Lancaster County-McWhirter

Weather History for KLKR - May, 2013

Change the Weather History Date:

Monday, May 6, 2013

  Actual Average (KUZA) Record (KUZA)
Temperature  
Mean Temperature 61 °F -  
Max Temperature 69 °F 78 °F 92 °F (1952)
Min Temperature 51 °F 54 °F 44 °F (2011)
Degree Days  
Heating Degree Days 4    
Growing Degree Days 11 (Base 50)    
Moisture  
Dew Point 56 °F    
Average Humidity 85    
Maximum Humidity 100    
Minimum Humidity 40    
Precipitation  
Precipitation 0.00 in - - ()
Sea Level Pressure  
Sea Level Pressure 29.87 in    
Wind  
Wind Speed 3 mph (SSW)    
Max Wind Speed 10 mph    
Max Gust Speed 17 mph    
Visibility 8 miles    
Events Fog , Rain    
Averages and records for this station are not official NWS values.
T = Trace of Precipitation, MM = Missing Value Source: NWS Daily Summary

Daily Weather History Graph

Daily Weather History Graph

Search for Another Location

Airport or City:

Trip Planner

Search our weather history database for the weather conditions in past years. The results will help you decide how hot, cold, wet, or windy it might be!

Date:

Astronomy

May. 06, 2013 Rise Set
Actual Time 6:27 AM EDT 8:12 PM EDT
Civil Twilight 6:00 AM EDT 8:40 PM EDT
Nautical Twilight 5:27 AM EDT 9:13 PM EDT
Astronomical Twilight 4:52 AM EDT 9:48 PM EDT
Moon 4:21 AM EDT (5/6) 5:17 PM EDT (5/6)
Length of Visible Light 14h 39m
Length of Day
13h 44m
Waning Crescent, 11% of the Moon is Illuminated
May 6
Waning Crescent
May 9
New
May 18
First Quarter
May 25
Full
May 31
Last Quarter

Hourly Weather History & Observations

Time (EDT) Temp. Dew Point Humidity Pressure Visibility Wind Dir Wind Speed Gust Speed Precip Events Conditions
12:15 AM 60.8 °F 60.8 °F 100% 29.85 in 9.0 mi East 6.9 mph - N/A Rain Light Rain
12:35 AM 60.8 °F 60.8 °F 100% 29.85 in 4.0 mi SE 5.8 mph - N/A Rain Light Rain
12:55 AM 60.8 °F 60.8 °F 100% 29.86 in 7.0 mi ESE 5.8 mph - N/A Rain Light Rain
1:15 AM 60.8 °F 60.8 °F 100% 29.87 in 3.0 mi SW 4.6 mph - N/A Rain Light Rain
1:35 AM 59.0 °F 59.0 °F 100% 29.86 in 2.0 mi SSE 3.5 mph - N/A Rain Light Rain
1:55 AM 60.8 °F 60.8 °F 100% 29.85 in 3.0 mi Calm Calm - N/A Rain Light Rain
2:15 AM 59.0 °F 59.0 °F 100% 29.84 in 7.0 mi East 4.6 mph - N/A Rain Light Rain
2:35 AM 59.0 °F 59.0 °F 100% 29.84 in 2.0 mi Calm Calm - N/A Rain Light Rain
2:55 AM 59.0 °F 59.0 °F 100% 29.84 in 1.0 mi East 3.5 mph - N/A Rain Rain
3:15 AM 59.0 °F 59.0 °F 100% 29.83 in 0.8 mi East 4.6 mph - N/A Rain Heavy Rain
3:35 AM 59.0 °F 59.0 °F 100% 29.83 in 4.0 mi Calm Calm - N/A Rain Light Rain
3:55 AM 59.0 °F 59.0 °F 100% 29.83 in 10.0 mi Calm Calm - N/A   Mostly Cloudy
4:15 AM 57.2 °F 57.2 °F 100% 29.83 in 8.0 mi Calm Calm - N/A   Mostly Cloudy
4:35 AM 59.0 °F 59.0 °F 100% 29.84 in 10.0 mi Calm Calm - N/A   Mostly Cloudy
4:55 AM 59.0 °F 59.0 °F 100% 29.83 in 5.0 mi Calm Calm - N/A   Mostly Cloudy
5:15 AM 59.0 °F 59.0 °F 100% 29.83 in 1.8 mi Calm Calm - N/A   Overcast
5:35 AM 59.0 °F 59.0 °F 100% 29.83 in 3.0 mi Calm Calm - N/A   Mostly Cloudy
5:55 AM 59.0 °F 59.0 °F 100% 29.84 in 10.0 mi Calm Calm - N/A   Mostly Cloudy
6:15 AM 59.0 °F 59.0 °F 100% 29.84 in 3.0 mi Calm Calm - N/A   Mostly Cloudy
6:35 AM 57.2 °F 57.2 °F 100% 29.85 in 0.5 mi Calm Calm - N/A Fog Fog
6:55 AM 57.2 °F 57.2 °F 100% 29.85 in 0.5 mi Calm Calm - N/A Fog Fog
7:15 AM 59.0 °F 59.0 °F 100% 29.86 in 2.0 mi Calm Calm - N/A   Overcast
7:35 AM 59.0 °F 59.0 °F 100% 29.86 in 6.0 mi Calm Calm - N/A   Mostly Cloudy
7:55 AM 60.8 °F 60.8 °F 100% 29.87 in 9.0 mi Calm Calm - N/A   Mostly Cloudy
8:15 AM 60.8 °F 60.8 °F 100% 29.87 in 10.0 mi SE 3.5 mph - N/A   Overcast
8:35 AM 60.8 °F 60.8 °F 100% 29.88 in 10.0 mi Calm Calm - N/A   Overcast
8:55 AM 60.8 °F 60.8 °F 100% 29.88 in 10.0 mi Calm Calm - N/A   Mostly Cloudy
9:15 AM 62.6 °F 62.6 °F 100% 29.88 in 10.0 mi Calm Calm - N/A   Partly Cloudy
9:35 AM 64.4 °F 62.6 °F 94% 29.88 in 10.0 mi WSW 3.5 mph - N/A   Mostly Cloudy
9:55 AM 62.6 °F 62.6 °F 100% 29.89 in 10.0 mi Calm Calm - N/A   Overcast
10:15 AM 62.6 °F 60.8 °F 94% 29.89 in 10.0 mi Calm Calm - N/A   Mostly Cloudy
10:35 AM 64.4 °F 60.8 °F 88% 29.89 in 10.0 mi Calm Calm - N/A   Mostly Cloudy
10:55 AM 64.4 °F 60.8 °F 88% 29.89 in 10.0 mi Calm Calm - N/A   Partly Cloudy
11:15 AM 68.0 °F 57.2 °F 68% 29.89 in 10.0 mi SE 3.5 mph - N/A   Partly Cloudy
11:35 AM 66.2 °F 59.0 °F 78% 29.90 in 10.0 mi SSW 4.6 mph - N/A   Scattered Clouds
11:55 AM 66.2 °F 59.0 °F 78% 29.89 in 10.0 mi SSW 3.5 mph - N/A   Scattered Clouds
12:15 PM 66.2 °F 59.0 °F 78% 29.89 in 10.0 mi WSW 8.1 mph - N/A   Scattered Clouds
12:35 PM 68.0 °F 57.2 °F 68% 29.89 in 10.0 mi SSW 5.8 mph - N/A   Partly Cloudy
12:55 PM 68.0 °F 57.2 °F 68% 29.88 in 10.0 mi WSW 6.9 mph - N/A   Clear
1:15 PM 69.8 °F 51.8 °F 53% 29.87 in 10.0 mi SW 9.2 mph - N/A   Clear
1:35 PM 68.0 °F 51.8 °F 56% 29.86 in 10.0 mi WSW 9.2 mph - N/A   Clear
1:55 PM 68.0 °F 55.4 °F 64% 29.86 in 10.0 mi SW 9.2 mph - N/A   Partly Cloudy
2:15 PM 66.2 °F 55.4 °F 68% 29.87 in 10.0 mi WSW 10.4 mph 17.3 mph N/A   Scattered Clouds
2:35 PM 68.0 °F 53.6 °F 60% 29.87 in 10.0 mi WSW 9.2 mph - N/A   Partly Cloudy
2:55 PM 66.2 °F 53.6 °F 64% 29.86 in 10.0 mi WSW 8.1 mph - N/A   Clear
3:15 PM 68.0 °F 50.0 °F 52% 29.86 in 10.0 mi SW 6.9 mph 16.1 mph N/A   Clear
3:55 PM 68.0 °F 50.0 °F 52% 29.85 in 10.0 mi SSW 3.5 mph - N/A   Partly Cloudy
4:15 PM 66.2 °F 50.0 °F 56% 29.85 in 10.0 mi SW 3.5 mph - N/A   Partly Cloudy
4:35 PM 66.2 °F 48.2 °F 52% 29.85 in 10.0 mi SSE 4.6 mph - N/A   Partly Cloudy
4:55 PM 68.0 °F 42.8 °F 40% 29.85 in 10.0 mi SSW 4.6 mph - N/A   Partly Cloudy
5:15 PM 68.0 °F 44.6 °F 43% 29.85 in 10.0 mi SSE 3.5 mph - N/A   Clear
5:35 PM 66.2 °F 48.2 °F 52% 29.85 in 10.0 mi Calm Calm - N/A   Partly Cloudy
5:55 PM 66.2 °F 48.2 °F 52% 29.85 in 10.0 mi Calm Calm - N/A   Clear
6:15 PM 66.2 °F 48.2 °F 52% 29.85 in 10.0 mi Calm Calm - N/A   Partly Cloudy
6:35 PM 64.4 °F 50.0 °F 59% 29.86 in 10.0 mi Calm Calm - N/A   Partly Cloudy
6:55 PM 66.2 °F 46.4 °F 49% 29.85 in 10.0 mi South 3.5 mph - N/A   Partly Cloudy
7:15 PM 66.2 °F 50.0 °F 56% 29.86 in 10.0 mi West 4.6 mph - N/A   Partly Cloudy
7:35 PM 62.6 °F 57.2 °F 82% 29.86 in 10.0 mi Calm Calm - N/A   Partly Cloudy
7:55 PM 60.8 °F 57.2 °F 88% 29.87 in 10.0 mi Calm Calm - N/A   Clear
8:15 PM 59.0 °F 57.2 °F 94% 29.87 in 10.0 mi Calm Calm - N/A   Clear
8:35 PM 57.2 °F 57.2 °F 100% 29.88 in 10.0 mi Calm Calm - N/A   Scattered Clouds
8:55 PM 57.2 °F 55.4 °F 94% 29.89 in 10.0 mi Calm Calm - N/A   Scattered Clouds
9:15 PM 55.4 °F 55.4 °F 100% 29.89 in 10.0 mi Calm Calm - N/A   Clear
9:35 PM 55.4 °F 55.4 °F 100% 29.90 in 10.0 mi Calm Calm - N/A   Clear
9:55 PM 55.4 °F 55.4 °F 100% 29.90 in 10.0 mi Calm Calm - N/A   Clear
10:15 PM 53.6 °F 53.6 °F 100% 29.91 in 10.0 mi Calm Calm - N/A   Clear
10:35 PM 53.6 °F 53.6 °F 100% 29.92 in 10.0 mi WSW 4.6 mph - N/A   Clear
10:55 PM 53.6 °F 53.6 °F 100% 29.92 in 10.0 mi Calm Calm - N/A   Clear
11:15 PM 53.6 °F 53.6 °F 100% 29.92 in 10.0 mi SW 3.5 mph - N/A   Clear
11:35 PM 53.6 °F 53.6 °F 100% 29.92 in 10.0 mi Calm Calm - N/A   Clear
11:55 PM 51.8 °F 51.8 °F 100% 29.92 in 10.0 mi Calm Calm - N/A   Partly Cloudy